User: anonymous   Login
Location: Black Rock Desert
(40.7548°N, 119.2364°W)
Time: 07:15:14
(UTC-08:00)
Language:

Cosmos 1340 Rocket - Orbit

View from above orbital plane
View from above orbital plane
View from above satellite
View from above satellite

Ground track
Ground track

The orbit data is extracted from the following two-line orbital elements,

1 13068U 82013B   14362.21539667  .00003442  00000-0  23924-3 0  5854
2 13068 081.2029 171.1613 0023446 052.3239 308.0105 15.05060789787713
Epoch (UTC): 28 December 2014 05:10:10
Eccentricity: 0.0023446
inclination: 81.2029°
perigee height: 535 km
apogee height: 567 km
right ascension of ascending node: 171.1613°
argument of perigee: 52.3239°
revolutions per day: 15.05060789
mean anomaly at epoch: 308.0105°
orbit number at epoch: 78771

The dashed part of the orbit path shows where the satellite is in the earth's shadow,  

DLR